Home   Weather   Aurora   Past weeks

Flag for USA Past Weather in Aurora, Colorado, USA — Yesterday and Last 2 Weeks

Now
74 °F

Passing clouds.


Feels Like: 73 °F
Forecast: 40 / 76 °F
Wind: No wind

Location: Buckley Air Force Base

Current Time: Oct 17, 2017 at 2:46:53 pm

Latest Report: Oct 17, 2017 at 1:58 pm


Visibility: 10 mi

Pressure: 30.01 "Hg (24.82 "Hg at 1647m altitude)

Humidity: 6%

Dew Point: 4 °F

Location of AuroraLocation

Past Weather in Aurora — Graph

°F

Aurora Temperature Yesterday

Maximum temperature yesterday: 76 °F (at 2:58 pm)
Minimum temperature yesterday: 37 °F (at 12:58 am)
Average temperature yesterday: 56 °F

High & Low Weather Summary for the Past Weeks

 TemperatureHumidityPressure
High79 °F (Oct 7, 3:58 pm)100% (Oct 2, 7:24 pm)30.43 "Hg (Oct 2, 7:24 pm)
Low26 °F (Oct 10, 4:58 am)6% (Oct 16, 12:58 pm)29.46 "Hg (Oct 8, 3:58 pm)
Average50 °F59%30.02 "Hg
* Reported Oct 2 12:58 pm — Oct 17 12:58 pm, Aurora. Weather by CustomWeather, © 2017

Note: Actual official high and low records may vary slightly from our data, if they occured in-between our weather recording intervals... More about our weather records

Advertising

Aurora Weather History for the Previous 24 Hours

Scroll right to see more
 ConditionsComfort  
Time TempWeatherWind HumidityBarometerVisibility
12:58 pm
Tue, Oct 17
74 °FPassing clouds.5 mph7%30.05 "Hg10 mi
11:58 am71 °FPassing clouds.5 mph9%30.08 "Hg10 mi
10:58 am66 °FPassing clouds.8 mph14%30.12 "Hg10 mi
9:58 am61 °FPassing clouds.10 mph16%30.14 "Hg10 mi
8:58 am53 °FPassing clouds.7 mph22%30.15 "Hg10 mi
7:58 am45 °FPassing clouds.10 mph27%30.17 "Hg10 mi
6:58 am42 °FPassing clouds.10 mph29%30.15 "Hg10 mi
5:58 am42 °FPassing clouds.8 mph31%30.14 "Hg10 mi
4:58 am44 °FPassing clouds.12 mph28%30.12 "Hg10 mi
3:58 am45 °FPassing clouds.7 mph27%30.12 "Hg10 mi
2:58 am44 °FPassing clouds.12 mph35%30.12 "Hg10 mi
1:58 am42 °FPassing clouds.9 mph40%30.13 "Hg10 mi
12:58 am44 °FPassing clouds.7 mph37%30.13 "Hg10 mi
11:58 pm
Mon, Oct 16
45 °FPassing clouds.7 mph35%30.15 "Hg10 mi
10:58 pm46 °FPassing clouds.9 mph37%30.15 "Hg10 mi
9:58 pm50 °FPassing clouds.9 mph33%30.15 "Hg10 mi
8:58 pm55 °FPassing clouds.8 mph28%30.13 "Hg10 mi
7:58 pm54 °FPassing clouds.7 mph29%30.16 "Hg10 mi
6:58 pm64 °FPassing clouds.No wind14%30.12 "Hg10 mi
5:58 pm70 °FScattered clouds.No wind14%30.09 "Hg10 mi
4:58 pm71 °FScattered clouds.No wind14%30.09 "Hg10 mi
3:58 pm74 °FScattered clouds.3 mph6%30.10 "Hg10 mi
2:58 pm76 °FScattered clouds.3 mph6%30.09 "Hg10 mi
Weather by CustomWeather, © 2017

See weather overview